period_start,C,m1,H,J0,J1,J2,J3,J4,J5,JA,JB,JC,JD,JJ,JK,JN,#
2016-12-06 00:02:56,0.16,4.34,0.00,17.93,22.64,26.37,15.03,48.98,1024.19,2042.96,2133.89,2162.54,2455.51,600.21,611.20,18.98,0000 0000 0000 0000 000000
2016-12-06 00:07:57,0.14,4.35,0.00,17.92,22.63,26.34,14.97,49.02,1024.16,2042.96,2132.23,2161.29,2454.05,599.96,610.90,19.03,0000 0000 0000 0000 000000
2016-12-06 00:12:58,0.15,4.36,0.00,17.94,22.62,26.38,15.02,49.23,1024.11,2042.97,2130.45,2159.98,2452.58,600.08,610.96,19.08,0000 0000 0000 0000 000000
2016-12-06 00:17:59,0.15,4.37,0.00,17.94,22.59,26.33,14.97,49.17,1024.00,2042.99,2128.76,2158.73,2451.24,600.11,610.81,19.13,0000 0000 0000 0000 000000
2016-12-06 00:23:01,0.14,4.38,0.00,17.91,22.59,26.32,14.94,49.08,1023.97,2042.98,2127.16,2157.48,2449.72,599.98,610.76,19.18,0000 0000 0000 0000 000000
2016-12-06 00:28:02,0.14,4.38,0.00,17.91,22.58,26.29,15.02,49.21,1023.96,2042.99,2125.41,2156.18,2448.30,600.16,611.00,19.23,0000 0000 0000 0000 000000
2016-12-06 00:33:03,0.16,4.39,0.00,17.90,22.57,26.34,14.88,49.23,1023.95,2042.99,2123.72,2154.86,2446.80,600.00,610.85,19.28,0000 0000 0000 0000 000000
2016-12-06 00:38:05,0.16,4.40,0.00,17.88,22.55,26.33,15.00,49.33,1023.95,2042.99,2121.93,2153.57,2445.36,600.19,611.07,19.33,0000 0000 0000 0000 000000
2016-12-06 00:43:06,0.13,4.41,0.00,17.88,22.54,26.28,14.93,49.33,1023.95,2042.99,2120.31,2152.33,2443.84,599.80,610.67,19.38,0000 0000 0000 0000 000000
2016-12-06 00:48:07,0.16,4.41,0.00,17.87,22.53,26.31,14.98,49.31,1023.95,2043.01,2118.64,2150.97,2442.44,600.14,611.06,19.43,0000 0000 0000 0000 000000
2016-12-06 00:53:08,0.17,4.42,0.00,17.86,22.52,26.23,14.98,49.40,1023.94,2043.00,2116.88,2149.65,2440.84,600.12,611.09,19.48,0000 0000 0000 0000 000000
2016-12-06 00:58:10,0.15,4.43,0.00,17.87,22.52,26.27,14.98,49.34,1023.95,2043.01,2115.03,2148.38,2439.51,599.63,610.54,19.53,0000 0000 0000 0000 000000
2016-12-06 01:03:11,0.15,4.44,0.00,17.86,22.51,26.28,14.94,49.33,1023.94,2043.05,2113.43,2147.06,2437.96,599.59,610.72,19.58,0000 0000 0000 0000 000000
2016-12-06 01:08:13,0.16,4.45,0.00,17.85,22.50,26.31,15.08,49.38,1023.94,2043.04,2111.75,2145.75,2436.42,600.52,611.35,19.63,0000 0000 0000 0000 000000
2016-12-06 01:13:14,0.14,4.45,0.00,17.84,22.49,26.30,15.03,49.34,1023.94,2043.06,2110.28,2144.47,2434.77,600.14,611.13,19.68,0000 0000 0000 0000 000000
2016-12-06 01:18:15,0.15,4.46,0.00,17.81,22.49,26.25,15.09,49.36,1023.93,2043.06,2108.54,2143.06,2433.17,600.46,611.50,19.73,0000 0000 0000 0000 000000
2016-12-06 01:23:17,0.17,4.47,0.00,17.82,22.47,26.29,14.96,49.33,1023.84,2043.07,2106.80,2141.65,2431.61,600.13,611.08,19.78,0000 0000 0000 0000 000000
2016-12-06 01:28:18,0.15,4.48,0.00,17.82,22.47,26.23,14.89,49.28,1023.64,2043.12,2104.96,2140.36,2430.14,599.85,610.66,19.83,0000 0000 0000 0000 000000
2016-12-06 01:33:19,0.19,4.49,0.00,17.82,22.45,26.22,15.01,49.25,1023.50,2043.24,2103.19,2138.95,2428.55,600.09,610.78,19.89,0000 0000 0000 0000 000000
2016-12-06 01:38:20,0.15,4.50,0.00,17.83,22.44,26.21,14.91,49.22,1023.51,2043.14,2101.31,2137.57,2426.94,599.74,610.49,19.94,0000 0000 0000 0000 000000
2016-12-06 01:43:22,0.17,4.50,0.00,17.81,22.42,26.20,15.01,49.23,1023.49,2043.23,2099.57,2136.26,2425.51,600.11,610.92,19.99,0000 0000 0000 0000 000000
2016-12-06 01:48:23,0.16,4.51,0.00,17.79,22.41,26.23,15.03,49.20,1023.49,2043.41,2097.85,2134.90,2423.93,600.21,611.15,20.04,0000 0000 0000 0000 000000
2016-12-06 01:53:25,0.18,4.52,0.00,17.79,22.39,26.19,14.97,49.24,1023.48,2043.52,2096.12,2133.62,2422.42,600.26,611.14,20.09,0000 0000 0000 0000 000000
2016-12-06 01:58:26,0.19,4.53,0.00,17.79,22.38,26.16,14.98,49.24,1023.50,2043.83,2094.24,2132.32,2420.95,600.12,610.93,20.14,0000 0000 0000 0000 000000
2016-12-06 02:03:27,0.16,4.54,0.00,17.79,22.37,26.14,14.97,49.26,1023.51,2043.85,2092.43,2130.90,2419.53,600.13,611.00,20.19,0000 0000 0000 0000 000000
2016-12-06 02:08:28,0.16,4.55,0.00,17.79,22.36,26.17,14.98,49.17,1023.47,2043.82,2090.86,2129.63,2417.91,599.99,610.75,20.24,0000 0000 0000 0000 000000
2016-12-06 02:13:30,0.16,4.56,0.00,17.76,22.34,26.15,15.00,49.32,1023.45,2043.95,2089.19,2128.42,2416.50,599.93,610.75,20.29,0000 0000 0000 0000 000000
2016-12-06 02:18:31,0.15,4.56,0.00,17.75,22.34,26.13,14.95,49.42,1023.45,2043.98,2087.22,2127.09,2415.28,599.66,610.52,20.34,0000 0000 0000 0000 000000
2016-12-06 02:23:32,0.16,4.57,0.00,17.74,22.32,26.12,14.93,49.24,1023.45,2043.98,2085.51,2125.81,2413.76,599.97,610.89,20.39,0000 0000 0000 0000 000000
2016-12-06 02:28:33,0.15,4.58,0.00,17.75,22.32,26.12,14.94,49.34,1023.45,2043.99,2083.98,2124.60,2412.34,599.81,610.69,20.44,0000 0000 0000 0000 000000
2016-12-06 02:33:34,0.15,4.59,0.00,17.72,22.32,26.14,14.97,49.35,1023.45,2043.99,2082.33,2123.30,2410.83,600.09,610.92,20.49,0000 0000 0000 0000 000000
2016-12-06 02:38:36,0.15,4.60,0.00,17.71,22.32,26.12,15.01,49.38,1023.45,2043.99,2080.61,2122.01,2409.40,599.82,610.95,20.54,0000 0000 0000 0000 000000
2016-12-06 02:43:37,0.11,4.60,0.00,17.71,22.31,26.11,14.95,49.44,1023.39,2043.99,2079.31,2120.99,2408.31,599.96,610.89,20.59,0000 0000 0000 0000 000000
2016-12-06 02:48:38,0.13,4.61,0.00,17.72,22.30,26.11,14.98,49.39,1023.17,2043.99,2077.84,2119.92,2406.99,600.12,610.90,20.64,0000 0000 0000 0000 000000
2016-12-06 02:53:39,0.14,4.62,0.00,17.72,22.30,26.15,15.04,49.40,1023.05,2043.99,2076.70,2118.80,2405.56,600.10,610.87,20.69,0000 0000 0000 0000 000000
2016-12-06 02:58:41,0.15,4.62,0.00,17.69,22.30,26.12,15.05,49.31,1023.03,2043.99,2075.19,2117.58,2403.92,599.90,610.66,20.74,0000 0000 0000 0000 000000
2016-12-06 03:03:42,0.15,4.63,0.00,17.69,22.29,26.13,15.00,49.21,1023.01,2043.99,2073.46,2116.24,2402.42,600.17,610.91,20.79,0000 0000 0000 0000 000000
2016-12-06 03:08:43,0.16,4.64,0.00,17.69,22.29,26.13,15.00,49.14,1022.98,2043.98,2071.76,2114.86,2400.82,600.07,610.80,20.84,0000 0000 0000 0000 000000
2016-12-06 03:13:45,0.16,4.65,0.00,17.69,22.28,26.11,15.02,49.17,1023.07,2043.99,2070.11,2113.59,2399.41,599.86,610.56,20.89,0000 0000 0000 0000 000000
2016-12-06 03:18:46,0.15,4.65,0.00,17.68,22.27,26.11,14.94,49.09,1022.99,2043.99,2068.38,2112.37,2397.89,599.69,610.41,20.94,0000 0000 0000 0000 000000
2016-12-06 03:23:47,0.15,4.66,0.00,17.69,22.27,26.09,14.95,49.19,1022.99,2043.98,2066.66,2111.07,2396.51,599.77,610.47,20.99,0000 0000 0000 0000 000000
2016-12-06 03:28:49,0.16,4.67,0.00,17.67,22.24,26.04,14.94,49.14,1022.97,2043.99,2064.86,2109.90,2395.07,600.07,610.72,21.04,0000 0000 0000 0000 000000
2016-12-06 03:33:50,0.16,4.68,0.00,17.67,22.24,26.05,14.90,49.25,1022.98,2043.99,2063.24,2108.64,2393.59,599.84,610.63,21.09,0000 0000 0000 0000 000000
2016-12-06 03:38:51,0.14,4.69,0.00,17.65,22.22,26.03,15.05,49.21,1023.00,2043.99,2061.62,2107.41,2392.15,600.23,611.07,21.14,0000 0000 0000 0000 000000
2016-12-06 03:43:52,0.16,4.69,0.00,17.65,22.22,26.02,14.93,49.17,1023.00,2043.99,2059.96,2106.10,2390.70,599.82,610.63,21.19,0000 0000 0000 0000 000000
2016-12-06 03:48:54,0.14,4.70,0.00,17.63,22.21,26.00,14.96,49.06,1023.01,2043.99,2058.37,2104.83,2389.29,599.99,610.84,21.24,0000 0000 0000 0000 000000
2016-12-06 03:53:55,0.17,4.71,0.00,17.63,22.19,25.98,14.93,49.30,1022.99,2043.99,2056.67,2103.62,2387.78,599.90,610.70,21.29,0000 0000 0000 0000 000000
2016-12-06 03:58:56,0.14,4.72,0.00,17.63,22.19,25.97,14.97,49.21,1022.97,2044.00,2054.94,2102.31,2386.38,599.88,610.72,21.34,0000 0000 0000 0000 000000
2016-12-06 04:03:58,0.15,4.73,0.00,17.63,22.18,25.98,15.01,49.39,1022.96,2044.00,2053.29,2100.99,2384.91,600.14,610.91,21.39,0000 0000 0000 0000 000000
2016-12-06 04:08:59,0.16,4.74,0.00,17.61,22.17,25.96,14.97,49.33,1022.96,2044.01,2051.59,2099.74,2383.53,600.03,610.96,21.44,0000 0000 0000 0000 000000
2016-12-06 04:14:00,0.14,4.74,0.00,17.60,22.17,25.95,14.95,49.31,1022.97,2044.02,2050.18,2098.49,2381.93,599.75,610.68,21.49,0000 0000 0000 0000 000000
2016-12-06 04:19:02,0.15,4.75,0.00,17.59,22.16,25.95,15.00,49.19,1022.98,2044.04,2048.63,2097.32,2380.54,600.03,610.93,21.54,0000 0000 0000 0000 000000
2016-12-06 04:24:03,0.14,4.76,0.00,17.59,22.15,26.00,14.97,49.17,1022.97,2044.05,2047.05,2096.07,2379.07,599.82,610.67,21.59,0000 0000 0000 0000 000000
2016-12-06 04:29:04,0.17,4.77,0.00,17.57,22.14,26.01,14.89,49.26,1022.96,2044.08,2045.66,2094.80,2377.66,599.93,610.87,21.64,0000 0000 0000 0000 000000
2016-12-06 04:34:05,0.15,4.77,0.00,17.58,22.14,25.97,14.99,49.17,1022.96,2044.08,2044.07,2093.57,2376.17,600.04,611.09,21.69,0000 0000 0000 0000 000000
2016-12-06 04:39:07,0.15,4.78,0.00,17.55,22.13,25.98,14.97,49.09,1022.96,2044.05,2042.47,2092.37,2374.71,599.91,610.91,21.74,0000 0000 0000 0000 000000
2016-12-06 04:44:08,0.15,4.79,0.00,17.54,22.12,25.97,15.03,49.17,1022.96,2044.14,2040.84,2091.12,2373.42,600.11,611.13,21.79,0000 0000 0000 0000 000000
2016-12-06 04:49:09,0.17,4.80,0.00,17.52,22.12,25.94,14.99,49.21,1022.96,2044.28,2039.33,2089.85,2372.01,599.96,611.04,21.84,0000 0000 0000 0000 000000
2016-12-06 04:54:10,0.19,4.81,0.00,17.53,22.10,25.96,14.97,49.17,1022.96,2044.41,2037.57,2088.67,2370.69,600.13,611.27,21.89,0000 0000 0000 0000 000000
2016-12-06 04:59:12,0.17,4.82,0.00,17.50,22.09,25.93,14.97,49.23,1022.96,2044.65,2036.00,2087.43,2369.34,599.85,610.93,21.94,0000 0000 0000 0000 000000
2016-12-06 05:04:13,0.15,4.83,0.00,17.49,22.09,25.92,14.96,49.17,1022.90,2044.81,2034.44,2086.29,2367.93,599.90,610.98,21.99,0000 0000 0000 0000 000000
2016-12-06 05:09:14,0.15,4.83,0.00,17.46,22.07,25.87,15.03,49.33,1022.80,2044.90,2032.93,2085.09,2366.68,599.82,610.99,22.04,0000 0000 0000 0000 000000
2016-12-06 05:14:15,0.15,4.84,0.00,17.46,22.07,25.88,15.04,49.38,1022.75,2044.94,2031.47,2083.89,2365.46,600.06,611.14,22.09,0000 0000 0000 0000 000000
2016-12-06 05:19:17,0.15,4.85,0.00,17.45,22.07,25.89,14.96,49.30,1022.77,2044.97,2029.93,2082.74,2364.06,599.92,611.01,22.14,0000 0000 0000 0000 000000
2016-12-06 05:24:18,0.14,4.85,0.00,17.46,22.06,25.90,14.95,49.23,1022.85,2044.97,2028.58,2081.62,2362.74,599.84,611.01,22.19,0000 0000 0000 0000 000000
2016-12-06 05:29:19,0.12,4.86,0.00,17.43,22.05,25.88,15.02,49.26,1022.88,2044.96,2027.17,2080.49,2361.45,600.11,611.34,22.24,0000 0000 0000 0000 000000
2016-12-06 05:34:20,0.15,4.87,0.00,17.43,22.04,25.89,14.98,49.25,1022.88,2044.97,2025.62,2079.31,2360.00,599.97,611.15,22.29,0000 0000 0000 0000 000000
2016-12-06 05:39:22,0.14,4.88,0.00,17.41,22.04,25.85,14.99,49.23,1022.95,2044.97,2024.07,2078.10,2358.64,599.72,610.95,22.34,0000 0000 0000 0000 000000
2016-12-06 05:44:23,0.14,4.88,0.00,17.42,22.02,25.85,14.98,49.27,1022.95,2044.99,2022.56,2076.95,2357.38,599.70,610.98,22.39,0000 0000 0000 0000 000000
2016-12-06 05:49:24,0.13,4.89,0.00,17.41,22.02,25.85,14.93,49.24,1022.95,2044.99,2021.10,2075.84,2356.12,599.88,611.20,22.44,0000 0000 0000 0000 000000
2016-12-06 05:54:26,0.16,4.90,0.00,17.41,22.01,25.86,14.91,49.19,1022.92,2044.98,2019.71,2074.71,2354.78,599.76,611.05,22.49,0000 0000 0000 0000 000000
2016-12-06 05:59:27,0.13,4.91,0.00,17.41,21.99,25.81,14.92,49.17,1022.78,2044.99,2018.34,2073.64,2353.54,599.87,611.04,22.54,0000 0000 0000 0000 000000
2016-12-06 06:04:28,0.13,4.91,0.00,17.40,21.99,25.80,15.01,49.23,1022.61,2044.99,2016.86,2072.54,2352.28,600.08,611.22,22.59,0000 0000 0000 0000 000000
2016-12-06 06:09:29,0.13,4.92,0.00,17.41,21.98,25.79,14.98,49.40,1022.59,2044.99,2015.45,2071.47,2351.03,600.14,611.31,22.64,0000 0000 0000 0000 000000
2016-12-06 06:14:30,0.14,4.93,0.00,17.38,21.97,25.74,14.95,49.27,1022.51,2044.99,2014.00,2070.31,2349.74,599.99,610.94,22.69,0000 0000 0000 0000 000000
2016-12-06 06:19:32,0.14,4.93,0.00,17.36,21.97,25.75,14.95,49.31,1022.48,2044.99,2012.59,2069.28,2348.51,599.88,611.02,22.74,0000 0000 0000 0000 000000
2016-12-06 06:24:33,0.12,4.94,0.00,17.35,21.95,25.78,15.03,49.28,1022.48,2044.99,2011.15,2068.16,2347.31,600.14,611.27,22.79,0000 0000 0000 0000 000000
2016-12-06 06:29:34,0.14,4.95,0.00,17.34,21.94,25.74,14.99,49.33,1022.48,2044.99,2009.59,2067.03,2346.05,600.11,611.25,22.84,0000 0000 0000 0000 000000
2016-12-06 06:34:36,0.13,4.96,0.00,17.34,21.94,25.73,14.96,49.25,1022.48,2045.00,2008.14,2065.92,2344.82,600.02,611.26,22.89,0000 0000 0000 0000 000000
2016-12-06 06:39:37,0.16,4.96,0.00,17.35,21.92,25.75,14.93,49.32,1022.48,2045.02,2006.66,2064.80,2343.53,600.02,611.09,22.94,0000 0000 0000 0000 000000
2016-12-06 06:44:38,0.13,4.97,0.00,17.32,21.92,25.74,15.07,49.46,1022.48,2045.02,2005.38,2063.73,2342.24,600.20,611.43,22.99,0000 0000 0000 0000 000000
2016-12-06 06:49:39,0.13,4.98,0.00,17.30,21.92,25.69,15.01,49.42,1022.48,2045.01,2003.99,2062.63,2340.91,600.04,611.25,23.04,0000 0000 0000 0000 000000
2016-12-06 06:54:41,0.15,4.98,0.00,17.29,21.90,25.70,14.94,49.41,1022.48,2045.02,2002.57,2061.53,2339.65,600.18,611.37,23.09,0000 0000 0000 0000 000000
2016-12-06 06:59:42,0.13,4.99,0.00,17.30,21.89,25.71,15.05,49.46,1022.48,2045.02,2001.16,2060.50,2338.49,600.12,611.38,23.14,0000 0000 0000 0000 000000
2016-12-06 07:04:43,0.14,5.00,0.00,17.27,21.89,25.74,14.98,49.45,1022.49,2045.05,1999.71,2059.41,2337.30,599.91,611.17,23.19,0000 0000 0000 0000 000000
2016-12-06 07:09:44,0.14,5.01,0.00,17.27,21.88,25.70,14.97,49.55,1022.51,2045.12,1998.30,2058.32,2336.11,599.87,611.14,23.24,0000 0000 0000 0000 000000
2016-12-06 07:14:45,0.13,5.01,0.00,17.25,21.87,25.67,14.95,49.55,1022.60,2045.15,1996.91,2057.32,2334.98,599.87,611.32,23.29,0000 0000 0000 0000 000000
2016-12-06 07:19:47,0.13,5.02,0.00,17.25,21.87,25.73,14.97,49.52,1022.63,2045.28,1995.73,2056.36,2333.87,599.93,611.35,23.34,0000 0000 0000 0000 000000
2016-12-06 07:24:48,0.16,5.03,0.00,17.25,21.87,25.67,14.96,49.57,1022.55,2045.46,1994.43,2055.40,2332.86,600.01,611.41,23.39,0000 0000 0000 0000 000000
2016-12-06 07:29:49,0.12,5.03,0.00,17.25,21.87,25.69,14.97,49.64,1022.56,2045.72,1993.44,2054.66,2331.80,600.10,611.56,23.44,0000 0000 0000 0000 000000
2016-12-06 07:34:50,0.12,5.04,0.00,17.23,21.87,25.68,14.92,49.57,1022.49,2045.72,1992.45,2053.69,2330.66,600.01,611.42,23.49,0000 0000 0000 0000 000000
2016-12-06 07:39:52,0.09,5.05,0.00,17.23,21.87,25.66,15.03,49.48,1022.48,2045.65,1991.39,2052.84,2329.47,600.20,611.57,23.54,0000 0000 0000 0000 000000
2016-12-06 07:44:53,0.09,5.05,0.00,17.24,21.86,25.68,14.95,49.32,1022.48,2045.52,1990.28,2051.81,2328.36,599.71,611.10,23.59,0000 0000 0000 0000 000000
2016-12-06 07:49:54,0.09,5.06,0.00,17.24,21.85,25.72,15.00,49.27,1022.48,2045.28,1989.00,2050.93,2327.27,600.15,611.47,23.64,0000 0000 0000 0000 000000
2016-12-06 07:54:55,0.13,5.06,0.00,17.21,21.84,25.71,14.92,49.33,1022.48,2045.47,1987.91,2050.05,2326.28,599.68,611.15,23.69,0000 0000 0000 0000 000000
2016-12-06 07:59:56,0.13,5.07,0.00,17.21,21.83,25.65,14.99,49.22,1022.46,2045.42,1986.71,2049.12,2325.17,599.99,611.41,23.74,0000 0000 0000 0000 000000
2016-12-06 08:04:58,0.12,5.07,0.00,17.21,21.82,25.66,15.05,49.37,1022.33,2045.43,1985.60,2048.25,2324.20,600.19,611.48,23.79,0000 0000 0000 0000 000000
2016-12-06 08:09:59,0.12,5.08,0.00,17.20,21.81,25.63,15.01,49.33,1022.39,2045.53,1984.48,2047.35,2323.29,599.99,611.44,23.84,0000 0000 0000 0000 000000
2016-12-06 08:15:01,0.10,5.09,0.00,17.18,21.79,25.59,14.92,49.31,1022.26,2045.68,1983.47,2046.89,2322.35,599.83,611.24,23.89,0000 0000 0000 0000 000000
2016-12-06 08:20:02,0.12,5.09,0.00,17.18,21.78,25.54,15.00,49.42,1022.14,2045.80,1982.43,2046.05,2321.37,600.13,611.50,23.94,0000 0000 0000 0000 000000
2016-12-06 08:25:03,0.12,5.10,0.00,17.19,21.77,25.55,14.96,49.42,1022.12,2045.85,1981.34,2045.19,2320.43,600.07,611.36,23.99,0000 0000 0000 0000 000000
2016-12-06 08:30:04,0.12,5.10,0.00,17.15,21.76,25.58,15.07,49.27,1022.19,2045.92,1980.33,2044.39,2319.46,600.37,611.74,24.05,0000 0000 0000 0000 000000
2016-12-06 08:35:06,0.11,5.11,0.00,17.15,21.74,25.55,15.03,49.38,1022.23,2045.96,1979.00,2043.56,2318.64,600.10,611.49,24.10,0000 0000 0000 0000 000000
2016-12-06 08:40:07,0.13,5.11,0.00,17.13,21.74,25.55,15.02,49.51,1022.45,2045.97,1977.65,2042.62,2317.67,600.10,611.62,24.15,0000 0000 0000 0000 000000
2016-12-06 08:45:09,0.10,5.12,0.00,17.13,21.72,25.54,14.93,49.40,1022.47,2045.99,1976.73,2041.79,2316.58,599.72,611.40,24.20,0000 0000 0000 0000 000000
2016-12-06 08:50:10,0.10,5.13,0.00,17.14,21.72,25.52,14.94,49.45,1022.48,2045.99,1975.62,2040.98,2315.58,599.97,611.61,24.25,0000 0000 0000 0000 000000
2016-12-06 08:55:11,0.11,5.13,0.00,17.14,21.71,25.50,14.98,49.56,1022.48,2045.99,1974.39,2040.04,2314.67,599.86,611.49,24.30,0000 0000 0000 0000 000000
2016-12-06 09:00:12,0.13,5.14,0.00,17.11,21.70,25.55,15.03,49.44,1022.48,2045.99,1972.91,2039.04,2313.51,599.88,611.56,24.35,0000 0000 0000 0000 000000
2016-12-06 09:05:14,0.12,5.15,0.00,17.10,21.69,25.53,15.00,49.53,1022.48,2045.99,1971.74,2038.11,2312.47,600.15,611.82,24.40,0000 0000 0000 0000 000000
2016-12-06 09:10:15,0.13,5.15,0.00,17.09,21.69,25.52,14.99,49.63,1022.41,2046.00,1970.37,2037.17,2311.38,599.77,611.37,24.45,0000 0000 0000 0000 000000
2016-12-06 09:15:16,0.38,5.16,0.00,17.08,21.69,25.50,15.09,49.52,1022.14,2046.00,1967.47,2034.93,2308.67,600.09,611.59,24.50,0000 0000 0000 0000 000000
2016-12-06 09:20:18,0.41,5.19,0.00,17.08,21.67,25.51,15.00,49.35,1022.16,2046.00,1962.77,2031.66,2304.89,599.92,611.44,24.55,0000 0000 0000 0000 000000
2016-12-06 09:25:19,0.34,5.20,0.00,17.08,21.67,25.52,15.01,49.33,1022.04,2046.00,1959.25,2029.19,2302.20,599.89,611.35,24.60,0000 0000 0000 0000 000000
2016-12-06 09:30:20,0.30,5.22,0.00,17.07,21.67,25.52,14.93,49.29,1022.07,2046.00,1955.85,2026.86,2299.66,599.73,611.23,24.65,0000 0000 0000 0000 000000
2016-12-06 09:35:22,0.32,5.24,0.00,17.05,21.67,25.49,15.04,49.50,1022.10,2046.00,1952.52,2024.53,2297.15,600.43,612.02,24.70,0000 0000 0000 0000 000000
2016-12-06 09:40:23,0.32,5.25,0.00,17.04,21.65,25.46,15.02,49.58,1022.15,2046.00,1949.17,2022.24,2294.75,600.01,611.60,24.75,0000 0000 0000 0000 000000
2016-12-06 09:45:24,0.21,5.26,0.00,17.04,21.64,25.47,14.97,49.73,1022.16,2046.00,1946.69,2020.55,2292.78,599.86,611.52,24.80,0000 0000 0000 0000 000000
2016-12-06 09:50:26,0.26,5.28,0.00,17.02,21.64,25.47,15.01,49.56,1022.16,2046.01,1944.19,2018.73,2290.61,599.83,611.31,24.85,0000 0000 0000 0000 000000
2016-12-06 09:55:27,0.28,5.29,0.00,17.02,21.63,25.45,15.08,49.55,1022.15,2046.01,1941.26,2016.69,2288.28,600.27,611.87,24.90,0000 0000 0000 0000 000000
2016-12-06 10:00:29,0.27,5.31,0.00,17.02,21.62,25.49,14.95,49.65,1022.10,2046.04,1938.41,2014.69,2286.07,599.76,611.47,24.95,0000 0000 0000 0000 000000
2016-12-06 10:05:30,0.18,5.32,0.00,17.01,21.62,25.49,15.00,49.62,1022.10,2046.02,1936.25,2013.09,2284.27,600.30,611.86,25.00,0000 0000 0000 0000 000000
2016-12-06 10:10:31,0.22,5.33,0.00,16.99,21.62,25.44,15.08,49.58,1022.04,2046.03,1934.35,2011.68,2282.62,600.25,611.84,25.05,0000 0000 0000 0000 000000
2016-12-06 10:15:32,0.18,5.34,0.00,16.98,21.61,25.49,15.02,49.68,1022.03,2046.03,1932.27,2010.22,2281.03,599.97,611.60,25.10,0000 0000 0000 0000 000000
2016-12-06 10:20:34,0.24,5.35,0.00,17.00,21.59,25.42,14.99,49.63,1022.07,2046.03,1930.15,2008.66,2279.32,600.14,611.80,25.15,0000 0000 0000 0000 000000
2016-12-06 10:25:35,0.19,5.36,0.00,16.99,21.59,25.41,15.02,49.63,1022.25,2046.05,1928.13,2007.18,2277.34,599.82,611.71,25.20,0000 0000 0000 0000 000000
2016-12-06 10:30:36,0.25,5.37,0.00,16.98,21.59,25.44,15.02,49.35,1022.08,2046.06,1925.88,2005.47,2275.30,600.03,611.71,25.25,0000 0000 0000 0000 000000
2016-12-06 10:35:37,0.25,5.38,0.00,16.97,21.59,25.43,15.02,49.47,1022.01,2046.03,1923.15,2003.65,2273.36,600.16,611.81,25.30,0000 0000 0000 0000 000000
2016-12-06 10:40:39,0.21,5.39,0.00,16.98,21.57,25.44,15.11,49.47,1022.02,2046.04,1920.98,2002.11,2271.64,600.31,611.82,25.35,0000 0000 0000 0000 000000
2016-12-06 10:45:40,0.20,5.40,0.00,16.97,21.57,25.44,15.02,49.56,1022.01,2046.03,1918.93,2000.65,2269.92,600.32,612.04,25.40,0000 0000 0000 0000 000000
2016-12-06 10:50:41,0.17,5.41,0.00,16.97,21.57,25.34,15.01,49.47,1021.99,2046.04,1917.15,1999.43,2268.49,599.95,611.52,25.45,0000 0000 0000 0000 000000
2016-12-06 10:55:42,0.16,5.42,0.00,16.96,21.55,25.35,14.97,49.40,1021.99,2046.05,1915.46,1998.17,2267.21,599.67,611.15,25.50,0000 0000 0000 0000 000000
2016-12-06 11:00:43,0.13,5.43,0.00,16.95,21.54,25.35,14.96,49.30,1021.99,2046.15,1914.11,1997.18,2266.13,600.13,611.74,25.55,0000 0000 0000 0000 000000
2016-12-06 11:05:44,0.16,5.44,0.00,16.94,21.54,25.37,14.95,49.35,1021.98,2046.31,1912.91,1996.25,2265.05,600.06,611.71,25.60,0000 0000 0000 0000 000000
2016-12-06 11:10:46,0.16,5.44,0.00,16.93,21.53,25.36,14.99,49.42,1021.99,2046.63,1911.65,1995.40,2264.07,599.96,611.55,25.65,0000 0000 0000 0000 000000
2016-12-06 11:15:47,0.15,5.45,0.00,16.93,21.52,25.35,15.01,49.38,1021.99,2046.85,1910.45,1994.51,2263.02,599.84,611.55,25.70,0000 0000 0000 0000 000000
2016-12-06 11:20:48,0.09,5.46,0.00,16.93,21.52,25.40,15.01,49.43,1021.99,2046.90,1909.50,1993.88,2262.09,600.09,611.72,25.75,0000 0000 0000 0000 000000
2016-12-06 11:25:50,0.10,5.46,0.00,16.92,21.51,25.44,15.00,49.55,1021.99,2046.92,1908.69,1993.07,2261.40,600.37,612.08,25.80,0000 0000 0000 0000 000000
2016-12-06 11:30:51,0.06,5.47,0.00,16.90,21.50,25.37,14.96,49.59,1021.98,2046.96,1907.98,1992.57,2260.78,599.64,611.57,25.85,0000 0000 0000 0000 000000
2016-12-06 11:35:52,0.07,5.47,0.00,16.93,21.49,25.35,15.06,49.51,1021.94,2046.97,1907.15,1992.01,2260.03,599.95,611.58,25.90,0000 0000 0000 0000 000000
2016-12-06 11:40:54,0.11,5.48,0.00,16.91,21.49,25.38,14.99,49.67,1021.82,2046.96,1906.30,1991.30,2259.22,599.89,611.59,25.95,0000 0000 0000 0000 000000
2016-12-06 11:45:55,0.11,5.48,0.00,16.90,21.49,25.33,14.96,49.52,1021.69,2046.96,1905.47,1990.55,2258.32,599.80,611.53,26.00,0000 0000 0000 0000 000000
2016-12-06 11:50:56,0.10,5.49,0.00,16.91,21.47,25.35,15.07,49.46,1021.58,2046.96,1904.25,1989.76,2257.32,600.06,611.53,26.05,0000 0000 0000 0000 000000
2016-12-06 11:55:57,0.09,5.49,0.00,16.88,21.47,25.30,14.96,49.43,1021.53,2046.98,1903.32,1989.01,2256.57,599.79,611.37,26.10,0000 0000 0000 0000 000000
2016-12-06 12:00:59,0.10,5.50,0.00,16.88,21.47,25.35,15.08,49.44,1021.53,2046.97,1902.20,1988.22,2255.86,600.14,611.61,26.15,0000 0000 0000 0000 000000
2016-12-06 12:06:01,0.11,5.50,0.00,16.87,21.46,25.30,14.98,49.38,1021.53,2046.97,1901.16,1987.55,2255.02,599.73,611.25,26.20,0000 0000 0000 0000 000000
2016-12-06 12:11:02,0.08,5.51,0.00,16.86,21.44,25.29,15.07,49.52,1021.53,2046.98,1900.24,1986.93,2254.15,599.92,611.51,26.25,0000 0000 0000 0000 000000
2016-12-06 12:16:03,0.11,5.51,0.00,16.87,21.44,25.27,15.07,49.56,1021.52,2046.98,1899.48,1986.12,2253.49,599.91,611.48,26.30,0000 0000 0000 0000 000000
2016-12-06 12:21:04,0.09,5.52,0.00,16.86,21.44,25.29,15.01,49.54,1021.51,2046.99,1898.54,1985.55,2252.76,600.15,611.67,26.35,0000 0000 0000 0000 000000
2016-12-06 12:26:06,0.04,5.52,0.00,16.86,21.44,25.32,15.01,49.58,1021.51,2046.99,1897.89,1984.97,2251.93,600.08,611.61,26.40,0000 0000 0000 0000 000000
2016-12-06 12:31:07,0.11,5.53,0.00,16.86,21.43,25.29,15.04,49.45,1021.53,2046.99,1897.04,1984.19,2251.07,600.13,611.78,26.45,0000 0000 0000 0000 000000
2016-12-06 12:36:08,0.09,5.53,0.00,16.87,21.42,25.29,14.90,49.46,1021.51,2046.99,1896.12,1983.67,2250.28,599.69,611.35,26.50,0000 0000 0000 0000 000000
2016-12-06 12:41:10,0.08,5.54,0.00,16.85,21.42,25.30,14.97,49.51,1021.51,2046.99,1895.25,1983.01,2249.53,600.13,611.63,26.55,0000 0000 0000 0000 000000
2016-12-06 12:46:11,0.10,5.54,0.00,16.85,21.42,25.31,14.97,49.52,1021.51,2046.99,1894.35,1982.32,2248.76,599.95,611.56,26.60,0000 0000 0000 0000 000000
2016-12-06 12:51:12,0.06,5.54,0.00,16.84,21.42,25.26,14.96,49.42,1021.50,2046.99,1893.64,1981.86,2248.00,599.70,611.25,26.65,0000 0000 0000 0000 000000
2016-12-06 12:56:14,0.08,5.55,0.00,16.84,21.40,25.26,14.98,49.42,1021.50,2046.99,1892.98,1981.06,2247.14,599.80,611.32,26.70,0000 0000 0000 0000 000000